| time (UTC) | temp F | wind direction | speed MPH | gust MPH | rain 1hr in | rain 24hr in | rain mn in | humidity % | barometer mb |
| 20260503021027 | 62 | 325 | 1.0 | 2.0 | 0.00 | 1.97 | 1.59 | 61 | 1017.0 |
| 20260503020027 | 62 | 331 | 2.0 | 4.0 | 0.00 | 2.18 | 1.59 | 62 | 1016.9 |
| 20260503015028 | 62 | 330 | 2.0 | 3.0 | 0.00 | 2.23 | 1.59 | 62 | 1016.7 |
| 20260503014028 | 62 | 319 | 1.0 | 3.0 | 0.00 | 2.34 | 1.59 | 63 | 1016.6 |
| 20260503013028 | 64 | 311 | 1.0 | 2.0 | 0.00 | 2.42 | 1.59 | 60 | 1016.4 |
| 20260503012028 | 64 | 334 | 1.0 | 2.0 | 0.00 | 2.53 | 1.59 | 58 | 1016.2 |
| 20260503011028 | 65 | 328 | 1.0 | 2.0 | 0.00 | 2.56 | 1.59 | 56 | 1016.0 |
| 20260503010028 | 65 | 334 | 2.0 | 3.0 | 0.00 | 2.59 | 1.59 | 55 | 1015.8 |
| 20260503005029 | 66 | 330 | 2.0 | 3.0 | 0.00 | 2.60 | 1.59 | 54 | 1015.6 |
| 20260503004028 | 67 | 333 | 2.0 | 4.0 | 0.00 | 2.69 | 1.59 | 52 | 1015.4 |
| 20260503003029 | 67 | 329 | 2.0 | 4.0 | 0.00 | 2.83 | 1.59 | 51 | 1015.1 |
| 20260503002029 | 68 | 342 | 3.0 | 5.0 | 0.00 | 2.98 | 1.59 | 52 | 1015.0 |
| 20260503001029 | 69 | 344 | 2.0 | 3.0 | 0.00 | 3.10 | 1.59 | 52 | 1014.8 |
| 20260503000031 | 69 | 359 | 3.0 | 5.0 | 0.00 | 3.13 | 1.59 | 53 | 1014.6 |
| 20260502235032 | 70 | 347 | 2.0 | 3.0 | 0.00 | 3.18 | 1.59 | 52 | 1014.4 |
| 20260502234019 | 70 | 340 | 3.0 | 7.0 | 0.00 | 3.28 | 1.59 | 51 | 1014.1 |
| 20260502233100 | 71 | 339 | 2.0 | 4.0 | 0.00 | 3.32 | 1.59 | 52 | 1013.9 |
| 20260502232030 | 71 | 0.0 | 0.0 | 0.00 | 3.42 | 1.59 | 52 | 1013.8 | |
| 20260502231019 | 72 | 334 | 2.0 | 7.0 | 0.00 | 3.47 | 1.59 | 53 | 1013.8 |
| 20260502230110 | 72 | 347 | 2.0 | 4.0 | 0.00 | 3.51 | 1.59 | 53 | 1013.8 |
| 20260502225020 | 72 | 330 | 2.0 | 5.0 | 0.00 | 3.51 | 1.59 | 54 | 1013.7 |
| 20260502224020 | 73 | 349 | 2.0 | 6.0 | 0.00 | 3.51 | 1.59 | 55 | 1013.6 |
| 20260502223100 | 73 | 349 | 4.0 | 9.0 | 0.00 | 3.51 | 1.59 | 56 | 1013.5 |
| 20260502222040 | 72 | 350 | 3.0 | 7.0 | 0.00 | 3.51 | 1.59 | 56 | 1013.6 |
| 20260502221017 | 72 | 353 | 4.0 | 10.0 | 0.00 | 3.51 | 1.59 | 56 | 1013.4 |
| 20260502220017 | 73 | 356 | 3.0 | 7.0 | 0.00 | 3.51 | 1.59 | 57 | 1013.4 |
| 20260502215020 | 73 | 351 | 2.0 | 10.0 | 0.00 | 3.51 | 1.59 | 58 | 1013.2 |
| 20260502214021 | 73 | 334 | 2.0 | 5.0 | 0.00 | 3.51 | 1.59 | 58 | 1013.2 |
| 20260502213018 | 73 | 345 | 2.0 | 6.0 | 0.00 | 3.51 | 1.59 | 58 | 1013.2 |
| 20260502212018 | 72 | 353 | 3.0 | 9.0 | 0.00 | 3.51 | 1.59 | 59 | 1013.2 |
| 20260502211018 | 72 | 349 | 3.0 | 10.0 | 0.00 | 3.51 | 1.59 | 61 | 1013.1 |
| 20260502210042 | 73 | 352 | 3.0 | 8.0 | 0.00 | 3.51 | 1.59 | 60 | 1013.2 |
| 20260502205022 | 73 | 340 | 2.0 | 7.0 | 0.00 | 3.51 | 1.59 | 60 | 1013.2 |
| 20260502204019 | 73 | 354 | 3.0 | 11.0 | 0.00 | 3.51 | 1.59 | 61 | 1013.3 |
| 20260502203021 | 73 | 346 | 3.0 | 8.0 | 0.00 | 3.51 | 1.59 | 60 | 1013.3 |
| 20260502202020 | 72 | 342 | 2.0 | 5.0 | 0.00 | 3.51 | 1.59 | 62 | 1013.3 |
| 20260502201019 | 72 | 348 | 3.0 | 8.0 | 0.00 | 3.51 | 1.59 | 62 | 1013.4 |
| 20260502200040 | 72 | 343 | 2.0 | 6.0 | 0.00 | 3.51 | 1.59 | 62 | 1013.5 |
| 20260502195040 | 72 | 357 | 3.0 | 10.0 | 0.00 | 3.51 | 1.59 | 63 | 1013.6 |
| 20260502194020 | 72 | 349 | 3.0 | 11.0 | 0.00 | 3.51 | 1.59 | 64 | 1013.7 |
| 20260502193020 | 73 | 346 | 3.0 | 7.0 | 0.00 | 3.51 | 1.59 | 63 | 1013.7 |
| 20260502192017 | 72 | 340 | 2.0 | 6.0 | 0.00 | 3.51 | 1.59 | 64 | 1013.9 |
| 20260502191038 | 72 | 340 | 3.0 | 7.0 | 0.00 | 3.51 | 1.59 | 64 | 1014.0 |
| 20260502190038 | 72 | 347 | 3.0 | 12.0 | 0.00 | 3.51 | 1.59 | 65 | 1014.0 |
| 20260502185023 | 71 | 354 | 2.0 | 8.0 | 0.00 | 3.52 | 1.59 | 68 | 1014.1 |
| 20260502184040 | 70 | 333 | 2.0 | 5.0 | 0.00 | 3.53 | 1.59 | 69 | 1014.2 |
| 20260502183024 | 71 | 347 | 2.0 | 5.0 | 0.00 | 3.53 | 1.59 | 68 | 1014.3 |
| 20260502182118 | 71 | 351 | 3.0 | 9.0 | 0.00 | 3.53 | 1.59 | 67 | 1014.4 |
| 20260502181018 | 70 | 348 | 2.0 | 7.0 | 0.00 | 3.55 | 1.59 | 68 | 1014.4 |
| 20260502164020 | 65 | 353 | 5.0 | 12.0 | 0.00 | 3.63 | 1.59 | 78 | 1014.1 |
| 20260502163019 | 64 | 358 | 6.0 | 12.0 | 0.00 | 3.63 | 1.59 | 79 | 1014.2 |
| 20260502162020 | 64 | 349 | 5.0 | 14.0 | 0.00 | 3.63 | 1.59 | 79 | 1014.3 |
| 20260502161020 | 63 | 345 | 4.0 | 11.0 | 0.00 | 3.63 | 1.59 | 82 | 1014.4 |
| 20260502152020 | 61 | 358 | 5.0 | 12.0 | 0.00 | 3.63 | 1.59 | 85 | 1014.0 |
| 20260502151021 | 60 | 349 | 5.0 | 10.0 | 0.00 | 3.63 | 1.59 | 89 | 1013.9 |
| 20260502123023 | 54 | 2 | 3.0 | 9.0 | 0.02 | 3.62 | 1.59 | 99 | 1012.3 |
| 20260502122017 | 54 | 358 | 4.0 | 10.0 | 0.03 | 3.62 | 1.59 | 99 | 1012.3 |
| 20260502121017 | 54 | 1 | 4.0 | 11.0 | 0.07 | 3.62 | 1.59 | 99 | 1012.2 |
| 20260502115024 | 54 | 2 | 4.0 | 7.0 | 0.17 | 3.62 | 1.59 | 99 | 1012.2 |
| 20260502114024 | 54 | 344 | 3.0 | 8.0 | 0.20 | 3.62 | 1.59 | 99 | 1012.3 |
| 20260502113018 | 54 | 1 | 3.0 | 8.0 | 0.21 | 3.60 | 1.57 | 99 | 1012.4 |
| 20260502112018 | 54 | 345 | 4.0 | 8.0 | 0.19 | 3.59 | 1.56 | 99 | 1012.3 |
| 20260502111019 | 54 | 350 | 3.0 | 8.0 | 0.15 | 3.55 | 1.52 | 99 | 1012.4 |
| 20260502110018 | 54 | 345 | 3.0 | 7.0 | 0.08 | 3.47 | 1.44 | 99 | 1012.3 |
| 20260502105018 | 54 | 351 | 5.0 | 9.0 | 0.07 | 3.45 | 1.42 | 99 | 1011.4 |
| 20260502104021 | 55 | 350 | 5.0 | 12.0 | 0.09 | 3.43 | 1.39 | 99 | 1011.3 |
| 20260502103019 | 55 | 348 | 4.0 | 10.0 | 0.06 | 3.40 | 1.36 | 99 | 1011.9 |
| 20260502102019 | 55 | 349 | 4.0 | 9.0 | 0.07 | 3.40 | 1.36 | 99 | 1012.2 |
| 20260502101020 | 55 | 347 | 4.0 | 11.0 | 0.13 | 3.40 | 1.36 | 99 | 1011.7 |
| 20260502091023 | 56 | 348 | 3.0 | 7.0 | 0.42 | 3.26 | 1.23 | 99 | 1012.0 |
| 20260502071041 | 56 | 354 | 5.0 | 9.0 | 0.26 | 2.46 | 0.43 | 99 | 1010.1 |
| 20260502070021 | 56 | 345 | 4.0 | 8.0 | 0.27 | 2.44 | 0.40 | 99 | 1010.9 |
| 20260502065021 | 56 | 354 | 5.0 | 7.0 | 0.30 | 2.42 | 0.39 | 99 | 1010.3 |
| 20260502064102 | 56 | 343 | 3.0 | 7.0 | 0.33 | 2.36 | 0.33 | 99 | 1011.1 |
| 20260502063022 | 56 | 339 | 3.0 | 6.0 | 0.28 | 2.31 | 0.28 | 99 | 1011.4 |
| 20260502062022 | 56 | 355 | 4.0 | 7.0 | 0.25 | 2.28 | 0.25 | 99 | 1011.2 |
| 20260502061022 | 56 | 346 | 3.0 | 6.0 | 0.17 | 2.20 | 0.17 | 99 | 1011.9 |
| 20260502060022 | 56 | 345 | 4.0 | 8.0 | 0.14 | 2.17 | 0.14 | 99 | 1011.7 |
| 20260502055022 | 56 | 350 | 3.0 | 7.0 | 0.08 | 2.11 | 0.08 | 99 | 1012.1 |
| 20260502054022 | 56 | 342 | 3.0 | 8.0 | 0.00 | 2.03 | 0.00 | 99 | 1012.0 |
| 20260502053022 | 56 | 345 | 4.0 | 6.0 | 0.00 | 2.03 | 0.00 | 99 | 1011.4 |
| 20260502052023 | 56 | 358 | 4.0 | 9.0 | 0.00 | 2.03 | 0.00 | 99 | 1011.7 |
| 20260502051017 | 56 | 351 | 5.0 | 8.0 | 0.00 | 2.03 | 0.00 | 99 | 1011.5 |
| 20260502050017 | 56 | 351 | 5.0 | 10.0 | 0.05 | 2.03 | 0.00 | 99 | 1011.8 |
| 20260502045023 | 56 | 359 | 5.0 | 10.0 | 0.09 | 2.03 | 2.03 | 99 | 1011.9 |
| 20260502044023 | 56 | 353 | 5.0 | 8.0 | 0.13 | 2.03 | 2.03 | 99 | 1011.9 |
| 20260502043020 | 56 | 351 | 4.0 | 11.0 | 0.15 | 2.03 | 2.03 | 99 | 1012.0 |
| 20260502042037 | 56 | 353 | 5.0 | 9.0 | 0.16 | 2.03 | 2.03 | 98 | 1011.9 |
| 20260502041017 | 56 | 356 | 5.0 | 12.0 | 0.17 | 2.03 | 2.03 | 98 | 1012.1 |
| 20260502040038 | 56 | 14 | 4.0 | 9.0 | 0.13 | 1.98 | 1.98 | 98 | 1012.4 |
| 20260502035024 | 56 | 17 | 3.0 | 7.0 | 0.09 | 1.94 | 1.94 | 98 | 1013.3 |
| 20260502034018 | 57 | 348 | 3.0 | 6.0 | 0.07 | 1.90 | 1.90 | 98 | 1013.9 |
| 20260502033021 | 57 | 335 | 1.0 | 3.0 | 0.10 | 1.88 | 1.88 | 98 | 1014.0 |
| 20260502032019 | 57 | 354 | 2.0 | 5.0 | 0.15 | 1.87 | 1.87 | 98 | 1013.2 |
| 20260502031019 | 57 | 352 | 2.0 | 5.0 | 0.21 | 1.86 | 1.86 | 98 | 1013.2 |
| 20260502030018 | 57 | 358 | 2.0 | 7.0 | 0.41 | 1.85 | 1.85 | 98 | 1013.3 |
| 20260502025019 | 57 | 348 | 2.0 | 5.0 | 0.45 | 1.85 | 1.85 | 98 | 1013.8 |
| 20260502024019 | 57 | 353 | 2.0 | 5.0 | 0.54 | 1.83 | 1.83 | 98 | 1013.6 |
| 20260502023019 | 57 | 337 | 1.0 | 4.0 | 0.58 | 1.78 | 1.78 | 98 | 1014.2 |
| 20260502022019 | 57 | 342 | 2.0 | 5.0 | 0.63 | 1.72 | 1.72 | 98 | 1013.5 |